THOR ABLESTAR DEB, 246

Orbit data source: Space-Track

THOR ABLESTAR DEB, 246 is space debris in LEO originally from a launch on Thu, 29 Jun 1961 UTC launched from the Air Force Eastern Test Range (AFETR). Debris objects in space refer to the collection of defunct objects orbiting the Earth. Examples of debris include non-operational satellites, rocket bodies, and fragments generated from explosions, collisions, or faulty payload assembly.

Loading next visibility...
Identifier
246, 1961-015CB
Orbit
LEO
Country
Flag of USUS
Related business
Manufacturer
Unknown
Mission
Spacecraft
Bus & Motor
Unknown
Mass
Unknown
Launch date (UTC)
1961-06-29 (65 years ago)
Launch vehicle
Unknown
Launch site
Air Force Eastern Test Range (AFETR)
Object type
Payload
Rocket body
Debris
Shape & HBR
Unknown shape, 0.2 m
Radar Cross Section
Medium (>0.1 m² and <1 m²)

Expand to show TLE details & history
Last TLE update: 6 hours ago

TLE from 6 hours ago
0 THOR ABLESTAR DEB
1 00246U 61015CB  26038.29793383  .00000036  00000-0  94380-4 0  9995
2 00246  66.8695 145.7057 0070289 228.6478 130.8540 13.86140736605861
Epoch: 2026-02-07T07:09Z
TLE epoch observation values (Epoch: 2026-02-07T07:09:01.482Z)
Latitude
-0.00003°
Longitude
-98.97395°
Altitude
978.13 km
Speed
7.346 km/s
True Right ascension
09h 42m 49s
True Declination
0° 00' 00"
Sunlit
Object was in full shadow at epoch
Visualization orbit readout
Latitude
Unknown
Longitude
Unknown
Altitude
Unknown
Speed
Unknown
Apparent Right ascension
Unknown
Apparent Declination
Unknown
Sunlit
N/A
Visualization observer readout
Local Sidereal Time
14:55:50
Azimuth
Unknown
Elevation
Unknown
Doppler factor
Unknown
Orbital elements
Apogee altitude
992.018 km
Perigee altitude
889.133 km
Semi-major axis
7,318.713 km
Eccentricity
0.00703
Inclination
66.8695°
RAAN
145.7057°
Arg. of periapsis
228.6478°
True anomaly
131.45973°
Mean anomaly
130.854°
Eccentric anomaly
131.15722°
Mean motion
3.4665 °/min
Orbital period
103.85 mins
BSTAR
0.00009438
Loading maneuver chart data...
Computing Atmospheric mass density...
Loading historical data...
Loading historical data...
Loading historical data...
Loading historical data...
Loading historical data...
Loading historical data...
Loading historical data...

Documentation

Showing up to 5 results
|